Погода в Пимпри-Чинчваде

Индия     18°38′21″N   73°47′57″E
темп.,
°C
ветер,
м/с
пор.,
м/с
влажн.,
%
обл.,
%
осадки,
мм/ч
давл.,
гПа
погр.,
м
13 мая, чт
чт1323:30+26зсз4757100 0.0 1007405
02:30+24зсз4771100 0.0 1006348
05:30+23зсз4680100 0.0 1006330
08:30+26з4554100 0.0 1008567
11:30+30зсз4434100 0.0 10071041
14:30+34зсз442899 0.0 10041829
17:30+33зсз433070 0.0 10031533
20:30+29зсз4540100 0.0 1004332
14 мая, пт
пт1423:30+26зсз365110 0.0 1005250
02:30+24зсз3561100 0.0 1004215
05:30+24зюз1259100 0.0 100482
08:30+28зсз113724 0.0 1006349
11:30+34вюв122312 0.0 10041390
14:30+37юв322135 0.0 10013002
17:30+33зюз6632100 0.0 10011133
20:30+30зсз5545100 0.0 1002431
15 мая, сб
сб1523:30+28з2257100 0.0 1003336
02:30+28сз3358100 0.0 1001264
05:30+27ссз3460100 0.0 1001197
08:30+32всв4733100 0.0 10031164
11:30+34всв7823100 0.0 10021874
14:30+35в6929100 0.3 9992898
17:30+35вюв7930100 0.3 9972009
20:30+32вюв1136100 0.1 100035
16 мая, вс
вс1623:30+31в1241100 0.7 1000128
02:30+26юв61168100 2.7 1000842
05:30+26всв41065100 5.8 1000495
08:30+27в71365100 3.5 10021406
11:30+31в111745100 3.9 10002328
14:30+31вюв111846100 0.0 9972341
17:30+26вюв122070100 3.5 9971409
20:30+26вюв111972100 0.1 9991235
17 мая, пн
пн1723:30+25юв121875100 0.1 1000966
02:30+24юв101679100 0.0 10001033
05:30+24юв81478100 0.1 1000857
08:30+25юв8127591 0.4 1003977
11:30+27ююв91166100 0.9 10031227
14:30+30ю695595 0.7 10011511
17:30+28ююз896244 1.5 1002919
20:30+26ююз486832 0.0 1004725